FW6629 Weather Reports


Display with metric or nautical units.
time (UTC)temp
F
wind
direction
speed
MPH
gust
MPH
rain 1hr
in
rain 24hr
in
rain mn
in
humidity
%
barometer
mb
20260506204023 66 127 2.0 4.0 0.04 1.07 1.07 89 1012.3
20260506203524 66 153 1.0 4.0 0.03 1.05 1.05 89 1012.4
20260506203037 66 112 2.0 4.0 0.04 1.05 1.05 89 1012.3
20260506202523 66 94 2.0 4.0 0.05 1.05 1.05 89 1012.4
20260506202023 66 171 1.0 5.0 0.05 1.05 1.05 89 1012.5
20260506201548 66 231 1.0 5.0 0.05 1.05 1.05 89 1012.6
20260506201024 67 224 2.0 8.0 0.04 1.04 1.04 89 1012.7
20260506200523 67 202 2.0 8.0 0.03 1.03 1.03 89 1013.0
20260506200042 67 191 3.0 6.0 0.03 1.03 1.03 89 1012.6
20260506195523 67 233 2.0 5.0 0.06 1.03 1.03 89 1012.5
20260506195020 67 172 1.0 8.0 0.08 1.03 1.03 89 1012.5
20260506194541 68 219 3.0 8.0 0.10 1.03 1.03 89 1012.7
20260506194027 68 178 4.0 8.0 0.11 1.03 1.03 89 1012.5
20260506193523 68 165 2.0 8.0 0.18 1.03 1.03 90 1012.5
20260506193041 68 150 3.0 8.0 0.32 1.02 1.02 90 1012.9
20260506192524 68 140 2.0 4.0 0.39 1.01 1.01 90 1012.8
20260506192028 68 240 1.0 5.0 0.40 1.01 1.01 90 1013.2
20260506191548 68 359 2.0 9.0 0.41 1.01 1.01 89 1012.8
20260506191024 68 177 4.0 9.0 0.42 1.01 1.01 89 1012.4
20260506190524 68 158 2.0 8.0 0.43 1.00 1.00 89 1012.8
20260506190038 68 123 3.0 8.0 0.43 1.00 1.00 89 1012.2
20260506185524 68 159 5.0 8.0 0.39 0.96 0.96 89 1012.8
20260506185020 69 88 3.0 9.0 0.38 0.95 0.95 89 1012.7
20260506184557 69 100 5.0 9.0 0.36 0.93 0.93 88 1012.6
20260506184020 69 109 5.0 8.0 0.35 0.92 0.92 88 1013.0
20260506183523 70 119 1.0 3.0 0.26 0.83 0.83 87 1013.0
20260506183041 70 323 0.0 3.0 0.11 0.68 0.68 87 1013.6
20260506182527 70 0 1.0 4.0 0.05 0.62 0.62 87 1013.5
20260506182021 70 129 2.0 3.0 0.04 0.61 0.61 86 1013.2
20260506181542 70 107 0.0 4.0 0.03 0.60 0.60 86 1013.1
20260506181023 70 0 1.0 6.0 0.02 0.58 0.58 86 1013.3
20260506180523 70 111 1.0 6.0 0.00 0.57 0.57 85 1013.1
20260506180040 70 104 2.0 4.0 0.00 0.57 0.57 85 1013.5
20260506175522 71 156 2.0 5.0 0.00 0.57 0.57 84 1013.5
20260506175022 71 250 2.0 6.0 0.00 0.57 0.57 84 1013.5
20260506174545 71 69 3.0 10.0 0.00 0.57 0.57 84 1013.4
20260506174022 71 129 2.0 10.0 0.00 0.57 0.57 84 1013.3
20260506173520 71 206 4.0 10.0 0.00 0.57 0.57 84 1013.2
20260506173044 71 142 4.0 9.0 0.00 0.57 0.57 83 1013.3
20260506172520 71 166 2.0 9.0 0.00 0.57 0.57 84 1013.3
20260506172022 71 170 4.0 10.0 0.00 0.57 0.57 84 1013.1
20260506171555 71 179 4.0 12.0 0.00 0.57 0.57 84 1013.1
20260506171022 71 165 7.0 12.0 0.00 0.57 0.57 84 1013.1
20260506170526 71 160 4.0 11.0 0.00 0.57 0.57 84 1013.1
20260506170047 71 98 7.0 11.0 0.00 0.57 0.57 83 1012.9
20260506165524 72 107 5.0 11.0 0.00 0.57 0.57 83 1012.9
20260506165024 72 179 5.0 11.0 0.00 0.57 0.57 83 1012.9
20260506164538 72 170 4.0 12.0 0.00 0.57 0.57 84 1012.8
20260506164022 72 156 6.0 12.0 0.00 0.57 0.57 84 1012.7
20260506163523 71 110 4.0 11.0 0.00 0.57 0.57 84 1012.7
20260506163047 71 92 5.0 13.0 0.00 0.57 0.57 86 1012.7
20260506162525 71 156 4.0 13.0 0.00 0.57 0.57 87 1012.5
20260506162021 70 131 7.0 13.0 0.00 0.57 0.57 89 1012.6
20260506161542 68 114 7.0 12.0 0.00 0.57 0.57 89 1012.7
20260506161023 68 117 4.0 12.0 0.00 0.57 0.57 90 1012.9
20260506160522 68 130 6.0 13.0 0.00 0.57 0.57 90 1012.8
20260506160044 68 140 6.0 13.0 0.00 0.57 0.57 90 1012.7
20260506155524 68 158 5.0 11.0 0.00 0.57 0.57 90 1012.8
20260506155023 67 132 4.0 14.0 0.01 0.57 0.57 90 1013.3
20260506154538 67 97 6.0 14.0 0.02 0.57 0.57 90 1013.6
20260506154024 68 157 4.0 7.0 0.04 0.57 0.57 91 1013.6
20260506153524 67 132 3.0 6.0 0.06 0.57 0.57 91 1013.9
20260506153041 67 119 1.0 4.0 0.22 0.57 0.57 91 1013.8
20260506152524 66 0 0.0 7.0 0.42 0.57 0.57 91 1013.3
20260506152024 66 77 1.0 10.0 0.47 0.57 0.57 90 1013.1
20260506151543 66 118 4.0 11.0 0.50 0.57 0.57 90 1013.2
20260506151022 65 157 6.0 11.0 0.51 0.57 0.57 90 1013.0
20260506150523 65 115 6.0 10.0 0.52 0.57 0.57 90 1013.5
20260506150040 65 117 4.0 10.0 0.52 0.57 0.57 90 1014.0
20260506145524 65 167 6.0 8.0 0.52 0.56 0.56 90 1013.6
20260506145023 65 139 5.0 8.0 0.52 0.56 0.56 90 1013.7
20260506144553 65 109 4.0 6.0 0.52 0.55 0.55 89 1013.5
20260506144025 65 114 3.0 12.0 0.51 0.52 0.52 89 1014.4
20260506143522 65 72 4.0 12.0 0.47 0.49 0.49 89 1014.6
20260506143037 66 19 6.0 9.0 0.30 0.32 0.32 89 1014.8
20260506142525 66 62 4.0 9.0 0.11 0.13 0.13 88 1015.0
20260506142024 66 359 2.0 4.0 0.09 0.10 0.10 88 1014.7
20260506141543 66 0 0.0 2.0 0.07 0.07 0.07 87 1014.4
20260506141024 66 115 0.0 2.0 0.06 0.06 0.06 87 1014.1
20260506140523 66 0 0.0 3.0 0.05 0.05 0.05 87 1014.1
20260506140042 66 0 1.0 3.0 0.04 0.04 0.04 87 1013.7
20260506135522 66 153 1.0 4.0 0.04 0.04 0.04 86 1013.6
20260506135022 66 157 1.0 4.0 0.03 0.03 0.03 86 1013.8
20260506134541 66 155 1.0 4.0 0.02 0.02 0.02 86 1013.8
20260506134025 66 114 2.0 5.0 0.02 0.02 0.02 86 1013.6
20260506133523 66 91 1.0 5.0 0.02 0.02 0.02 85 1013.6
20260506133040 67 163 1.0 7.0 0.02 0.02 0.02 85 1013.3
20260506132521 67 125 2.0 7.0 0.02 0.02 0.02 84 1013.3
20260506132023 67 177 2.0 7.0 0.01 0.01 0.01 84 1013.5
20260506131543 67 120 2.0 7.0 0.00 0.00 0.00 83 1013.2
20260506131027 67 177 2.0 7.0 0.00 0.00 0.00 83 1013.1
20260506130523 67 129 3.0 6.0 0.00 0.00 0.00 82 1012.8
20260506130037 67 108 1.0 8.0 0.00 0.00 0.00 81 1012.7
20260506125523 67 138 3.0 8.0 0.00 0.00 0.00 81 1012.7
20260506125022 67 177 2.0 8.0 0.00 0.00 0.00 80 1012.8
20260506124545 67 161 2.0 8.0 0.00 0.00 0.00 80 1012.5
20260506124026 67 115 5.0 8.0 0.00 0.00 0.00 80 1012.3
20260506123523 67 135 3.0 7.0 0.00 0.00 0.00 80 1012.3
20260506123039 67 139 3.0 7.0 0.00 0.00 0.00 80 1012.3
20260506122523 67 104 3.0 9.0 0.00 0.00 0.00 80 1012.3
20260506122025 67 118 4.0 10.0 0.00 0.00 0.00 80 1012.1
20260506121541 67 90 5.0 10.0 0.00 0.00 0.00 80 1012.0
20260506121024 67 152 5.0 10.0 0.00 0.00 0.00 80 1011.9
20260506120527 67 86 4.0 9.0 0.00 0.00 0.00 80 1011.9
20260506120037 67 115 4.0 9.0 0.00 0.00 0.00 79 1011.8
20260506115524 67 148 4.0 9.0 0.00 0.00 0.00 79 1011.8
20260506115023 67 160 5.0 8.0 0.00 0.00 0.00 79 1011.7
20260506114542 67 116 4.0 7.0 0.00 0.00 0.00 79 1011.7
20260506114022 67 123 3.0 8.0 0.00 0.00 0.00 79 1011.9
20260506113523 67 160 3.0 8.0 0.00 0.00 0.00 79 1011.8
20260506113037 67 94 3.0 7.0 0.00 0.00 0.00 79 1011.8
20260506112523 67 122 3.0 10.0 0.00 0.00 0.00 79 1011.8
20260506112023 67 96 4.0 10.0 0.00 0.00 0.00 78 1011.7
20260506111543 67 100 4.0 8.0 0.00 0.00 0.00 78 1011.4
20260506111023 67 128 3.0 9.0 0.00 0.00 0.00 78 1011.6
20260506110524 67 154 4.0 9.0 0.00 0.00 0.00 78 1011.6
20260506110042 67 114 4.0 10.0 0.00 0.00 0.00 78 1011.5
20260506105524 67 137 5.0 10.0 0.00 0.00 0.00 78 1011.6
20260506105020 67 137 4.0 7.0 0.00 0.00 0.00 78 1011.4
20260506104544 67 79 2.0 8.0 0.00 0.00 0.00 77 1011.5
20260506104023 67 173 4.0 9.0 0.00 0.00 0.00 77 1011.4
20260506103522 67 157 3.0 9.0 0.00 0.00 0.00 77 1011.2
20260506103038 67 133 5.0 12.0 0.00 0.00 0.00 77 1010.9
20260506102524 67 108 4.0 12.0 0.00 0.00 0.00 77 1010.5
20260506102024 67 130 5.0 10.0 0.00 0.00 0.00 76 1010.7
20260506101537 67 100 4.0 11.0 0.00 0.00 0.00 76 1010.9
20260506101024 67 108 5.0 11.0 0.00 0.00 0.00 76 1010.8
20260506100523 68 140 6.0 11.0 0.00 0.00 0.00 76 1010.9
20260506100055 68 133 3.0 9.0 0.00 0.00 0.00 75 1011.0
20260506095523 68 143 5.0 9.0 0.00 0.00 0.00 75 1010.9
20260506095024 68 133 4.0 8.0 0.00 0.00 0.00 75 1011.2
20260506094546 68 85 3.0 7.0 0.00 0.00 0.00 75 1011.2
20260506094022 68 91 4.0 8.0 0.00 0.00 0.00 75 1010.9
20260506093522 68 190 2.0 8.0 0.00 0.00 0.00 74 1011.0
20260506093041 68 99 4.0 10.0 0.00 0.00 0.00 74 1011.1
20260506092526 68 119 4.0 10.0 0.00 0.00 0.00 74 1011.1
20260506092023 68 110 3.0 10.0 0.00 0.00 0.00 74 1011.0
20260506091541 68 186 4.0 10.0 0.00 0.00 0.00 74 1010.8
20260506091024 68 123 3.0 8.0 0.00 0.00 0.00 74 1010.8
20260506090521 68 182 3.0 8.0 0.00 0.00 0.00 73 1010.7
20260506090037 68 86 3.0 6.0 0.00 0.00 0.00 73 1010.6
20260506085523 68 142 3.0 6.0 0.00 0.00 0.00 73 1010.6
20260506085023 68 108 2.0 9.0 0.00 0.00 0.00 73 1010.7
20260506084547 68 158 5.0 9.0 0.00 0.00 0.00 73 1010.6
20260506084024 68 155 2.0 9.0 0.00 0.00 0.00 73 1010.6
20260506083524 68 150 2.0 7.0 0.00 0.00 0.00 73 1010.5
20260506083037 68 139 3.0 9.0 0.00 0.00 0.00 72 1010.4
20260506082522 68 152 4.0 9.0 0.00 0.00 0.00 72 1010.3
20260506082022 68 164 4.0 11.0 0.00 0.00 0.00 72 1010.4
20260506081544 68 262 5.0 11.0 0.00 0.00 0.00 72 1010.3
20260506081023 68 162 4.0 10.0 0.00 0.00 0.00 72 1010.5
20260506080522 68 110 2.0 6.0 0.00 0.00 0.00 71 1010.6
20260506073524 68 50 2.0 5.0 0.00 0.00 0.00 69 1010.3
20260506073037 68 136 3.0 7.0 0.00 0.00 0.00 69 1010.3
20260506072524 68 82 4.0 7.0 0.00 0.00 0.00 68 1010.4
20260506072023 68 128 3.0 9.0 0.00 0.00 0.00 68 1010.3
20260506071539 68 176 3.0 9.0 0.00 0.00 0.00 68 1010.3
20260506071024 68 117 4.0 9.0 0.00 0.00 0.00 67 1010.2
20260506070521 68 121 4.0 7.0 0.00 0.00 0.00 67 1010.4
20260506062022 68 81 2.0 5.0 0.00 0.00 0.00 65 1011.0
20260506061540 68 102 2.0 5.0 0.00 0.00 0.00 65 1011.1
20260506061022 68 151 2.0 5.0 0.00 0.00 0.00 65 1011.2
20260506060524 68 154 1.0 5.0 0.00 0.00 0.00 65 1011.2
20260506051022 69 185 2.0 6.0 0.00 0.00 0.00 63 1011.4
20260506050522 69 122 3.0 6.0 0.00 0.00 0.00 62 1011.4
20260506045023 69 101 2.0 4.0 0.00 0.00 0.00 62 1011.6
20260506044545 70 136 1.0 3.0 0.00 0.00 0.00 61 1011.6
20260506044021 70 158 1.0 3.0 0.00 0.00 0.00 61 1011.6
20260506043523 70 156 0.0 2.0 0.00 0.00 0.00 60 1011.6
20260506043037 70 210 0.0 2.0 0.00 0.00 0.00 60 1011.6
20260506042526 70 160 0.0 1.0 0.00 0.00 0.00 60 1011.6
20260506042024 70 0 0.0 3.0 0.00 0.00 0.00 60 1011.5
20260506041551 70 129 0.0 3.0 0.00 0.00 0.00 60 1011.6
20260506041023 70 137 1.0 3.0 0.00 0.00 0.00 60 1011.7
20260506040524 70 144 2.0 3.0 0.00 0.00 0.00 59 1011.7
20260506040044 70 126 2.0 3.0 0.00 0.00 0.00 59 1011.6
20260506035526 70 135 1.0 2.0 0.00 0.00 0.00 59 1011.5
20260506035023 71 119 1.0 2.0 0.00 0.00 0.00 59 1011.7
20260506034541 71 168 0.0 2.0 0.00 0.00 0.00 58 1011.8
20260506034022 71 158 0.0 2.0 0.00 0.00 0.00 58 1011.9
20260506033521 71 145 0.0 2.0 0.00 0.00 0.00 58 1011.9
20260506033042 71 279 0.0 2.0 0.00 0.00 0.00 57 1012.0
20260506032523 71 198 0.0 2.0 0.00 0.00 0.00 57 1011.9
20260506032023 71 309 0.0 6.0 0.00 0.00 0.00 57 1011.9
20260506031540 71 173 1.0 6.0 0.00 0.00 0.00 57 1011.8
20260506031022 71 89 2.0 8.0 0.00 0.00 0.00 57 1011.6
20260506030524 71 120 4.0 8.0 0.00 0.00 0.00 56 1011.5
20260506030059 71 121 2.0 5.0 0.00 0.00 0.00 56 1011.6
20260506025522 71 110 2.0 7.0 0.00 0.00 0.00 56 1011.8
20260506025027 71 136 2.0 8.0 0.00 0.00 0.00 56 1011.9
20260506024554 71 111 3.0 8.0 0.00 0.00 0.00 56 1011.9
20260506024022 71 131 3.0 7.0 0.00 0.00 0.00 55 1012.0
20260506023523 71 104 3.0 7.0 0.00 0.00 0.00 55 1012.0
20260506023043 71 171 2.0 7.0 0.00 0.00 0.00 55 1012.0
20260506022522 71 127 2.0 7.0 0.00 0.00 0.00 55 1011.9
20260506022022 71 159 2.0 8.0 0.00 0.00 0.00 55 1011.6
20260506021542 71 173 3.0 8.0 0.00 0.00 0.00 55 1011.6
20260506021022 71 116 3.0 8.0 0.00 0.00 0.00 55 1011.6
20260506020527 71 159 4.0 8.0 0.00 0.00 0.00 55 1011.5
20260506020040 71 205 4.0 9.0 0.00 0.00 0.00 55 1011.5
20260506015522 71 186 3.0 9.0 0.00 0.00 0.00 55 1011.4
20260506015022 71 152 4.0 11.0 0.00 0.00 0.00 55 1011.4
20260506014556 71 139 3.0 11.0 0.00 0.00 0.00 55 1011.4
20260506014021 71 146 5.0 10.0 0.00 0.00 0.00 55 1011.4
20260506013524 71 163 3.0 10.0 0.00 0.00 0.00 55 1011.3
20260506013045 71 147 4.0 9.0 0.00 0.00 0.00 55 1011.3
20260506012523 71 126 4.0 9.0 0.00 0.00 0.00 55 1011.2
20260506012023 71 176 3.0 8.0 0.00 0.00 0.00 55 1011.3
20260506011553 71 119 4.0 11.0 0.00 0.00 0.00 54 1011.1
20260506011023 71 114 5.0 11.0 0.00 0.00 0.00 54 1011.1
20260506010523 71 29 3.0 8.0 0.00 0.00 0.00 54 1011.1
20260506010050 71 176 3.0 8.0 0.00 0.00 0.00 54 1011.1
20260506005522 72 163 3.0 7.0 0.00 0.00 0.00 54 1011.1
20260506005023 72 154 2.0 7.0 0.00 0.00 0.00 53 1011.0
20260506004549 72 108 2.0 7.0 0.00 0.00 0.00 53 1011.1
20260506004021 72 119 2.0 6.0 0.00 0.00 0.00 53 1011.2
20260506003523 72 124 3.0 5.0 0.00 0.00 0.00 52 1011.1
20260506003042 72 123 3.0 5.0 0.00 0.00 0.00 52 1011.1
20260506002520 72 117 2.0 5.0 0.00 0.00 0.00 52 1011.2
20260506002023 73 94 2.0 5.0 0.00 0.00 0.00 51 1011.2
20260506001538 73 102 1.0 4.0 0.00 0.00 0.00 51 1011.3
20260506001022 73 186 1.0 3.0 0.00 0.00 0.00 50 1011.3
20260506000524 73 179 1.0 3.0 0.00 0.00 0.00 50 1011.4
20260506000038 73 154 1.0 3.0 0.00 0.00 0.00 49 1011.2
20260505235521 73 175 1.0 4.0 0.00 0.00 0.00 49 1011.2
20260505235021 73 161 2.0 4.0 0.00 0.00 0.00 48 1011.2
20260505234537 74 125 1.0 7.0 0.00 0.00 0.00 48 1011.2
20260505234024 74 112 3.0 7.0 0.00 0.00 0.00 47 1011.2
20260505233524 74 200 1.0 8.0 0.00 0.00 0.00 46 1011.2
20260505233044 75 149 2.0 8.0 0.00 0.00 0.00 45 1011.3
20260505232521 75 158 4.0 8.0 0.00 0.00 0.00 45 1011.2
20260505232024 75 115 3.0 5.0 0.00 0.00 0.00 45 1011.3
20260505231542 75 155 2.0 7.0 0.00 0.00 0.00 45 1011.4
20260505231023 75 169 3.0 9.0 0.00 0.00 0.00 45 1011.3
20260505230523 75 160 2.0 9.0 0.00 0.00 0.00 45 1011.3
20260505230047 75 219 3.0 9.0 0.00 0.00 0.00 44 1011.3
20260505225523 75 91 4.0 8.0 0.00 0.00 0.00 44 1011.3
20260505225026 75 103 3.0 8.0 0.00 0.00 0.00 44 1011.4
20260505224546 75 112 3.0 7.0 0.00 0.00 0.00 44 1011.5
20260505224021 74 101 3.0 7.0 0.00 0.00 0.00 45 1011.4
20260505223523 74 159 2.0 6.0 0.00 0.00 0.00 46 1011.4
20260505223037 74 181 3.0 7.0 0.00 0.00 0.00 47 1011.3
20260505222521 74 174 3.0 7.0 0.00 0.00 0.00 47 1011.3
20260505222020 73 115 3.0 6.0 0.00 0.00 0.00 48 1011.3
20260505221537 73 129 2.0 4.0 0.00 0.00 0.00 49 1011.2
20260505221023 73 78 1.0 7.0 0.00 0.00 0.00 52 1011.4
20260505220523 72 155 2.0 7.0 0.00 0.00 0.00 51 1011.4
20260505220046 72 154 1.0 5.0 0.00 0.00 0.00 50 1011.3
20260505215525 73 89 2.0 9.0 0.00 0.00 0.00 49 1011.3
20260505215025 73 148 1.0 11.0 0.00 0.00 0.00 48 1011.2
20260505214541 74 167 6.0 11.0 0.00 0.00 0.00 47 1010.9
20260505214023 75 105 7.0 11.0 0.00 0.00 0.00 46 1010.9
20260505213527 75 119 5.0 10.0 0.00 0.00 0.00 44 1011.6
20260505213046 75 142 2.0 9.0 0.00 0.00 0.00 42 1012.0
20260505212521 76 126 3.0 9.0 0.00 0.00 0.00 41 1012.0
20260505212024 76 144 4.0 10.0 0.00 0.00 0.00 40 1012.0
20260505211542 76 137 4.0 10.0 0.00 0.00 0.00 39 1012.2
20260505211022 76 179 2.0 9.0 0.00 0.00 0.00 39 1012.1
20260505210521 76 144 3.0 9.0 0.00 0.00 0.00 38 1012.1
20260505210037 76 129 3.0 12.0 0.00 0.00 0.00 39 1012.0
20260505205524 77 154 3.0 12.0 0.00 0.00 0.00 39 1011.9
20260505205021 77 102 5.0 12.0 0.00 0.00 0.00 39 1011.8
20260505204544 77 184 6.0 12.0 0.00 0.00 0.00 39 1011.9